Probability
0 0 0 0 0 0 0 0 0 0 0 0 0 0 0 0 0 0 0 0 0 0 0 0 0 0 0 0 0 0 0 0 0 0 0 0 0 0 0 0 0 0 0
0 0 0 0 0 0 0 0 0 0 0 0 0 0 0 0 0 0 0 0 0 0 0 0 0 0 0 0 0 0 0 0 0 0 0 0 0 0 0 0 0 0 0
0 0 0 0 0 0 0 0 0 0 0 0 0 0 0 0 0 0 0 0 0 0 0 0 0 0 0 0 0 0 0 0 0 0 0 0 0 0 0 0 0 0 0
0 0 0 0 0 0 0 0 0 0 0 0 0 0 0 0 0 0 0 0 0 0 0 0 0 0 0 0 0 0 0 0 0 0 0 0 0 0 0 0 0 0 0
0 0 0 0 0 0 0 0 0 0 0 0 0 0 0 0 0 0 0 0 0 0 0 0 0 0 0 0 0 0 0 0 0 0 0 0 0 0 0 0 0 0 0
0 0 0 0 0 0 0 0 0 0 0 0 0 0 0 0 0 0 0 0 0 0 0 0 0 0 0 0 0 0 0 0 0 0 0 0 0 0 0 0 0 0 0
0 0 0 0 0 0 0 0 0 0 0 0 0 0 0 0 0 0 0 0 0 0 0 0 0 0 0 0 0 0 0 0 0 0 0 0 0 0 0 0 0 0 0
0 0 0 0 0 0 0 0 0 0 0 0 0 0 0 0 0 0 0 0 0 0 0 0 0 0 0 0 0 0 0 0 0 0 0 0 0 0 0 0 0 0 0
0 0 0 0 0 0 0 0 0 0 0 0 0 0 0 0 0 0 0 0 0 0 0 0 0 0 0 0 0 0 0 0 0 0 0 0 0 0 0 0 0 0 0
0 0 0 0 0 0 0 0 0 0 0 0 0 0 0 0 0 0 0 0 0 0 0 0 0 0 0 0 0 0 0 0 0 0 0 0 0 0 0 0 0 0 0
0 0 0 0 0 0 0 0 0 0 0 0 0 0 0 0 0 0 0 0 0 0 0 0 0 0 0 0 0 0 0 0 0 0 0 0 0 0 0 0 0 0 0
0 0 0 0 0 0 0 0 0 0 0 0 0 0 0 0 0 0 0 0 0 0 0 0 0 0 0 0 0 0 0 0 0 0 0 0 0 0 0 0 0 0 0
0 0 0 0 0 0 0 0 0 0 0 0 0 0 0 0 0 0 0 0 0 0 0 0 0 0 0 0 0 0 0 0 0 0 0 0 0 0 0 0 0 0 0
0 0 0 0 0 0 0 0 0 0 0 0 0 0 0 0 0 0 0 0 0 0 0 0 0 0 0 0 0 0 0 0 0 0 0 0 0 0 0 0 0 0 0
0 0 0 0 0 0 0 0 0 0 0 0 0 0 0 0 0 0 0 0 0 0 0 0 0 0 0 0 0 0 0 0 0 0 0 0 0 0 0 0 0 0 0
0 0 0 0 0 0 0 0 0 0 0 0 0 0 0 0 0 0 0 0 0 0 0 0 0 0 0 0 0 0 0 0 0 0 0 0 0 0 0 0 0 0 0
0 0 0 0 0 0 0 0 0 0 0 0 0 0 0 0 0 0 0 0 0 0 0 0 0 0 0 0 0 0 0 0 0 0 0 0 0 0 0 0 0 0 0
0 0 0 0 0 0 0 0 0 0 0 0 0 0 0 0 0 0 0 0 0 0 0 0 0 0 0 0 0 0 0 0 0 0 0 0 0 0 0 0 0 0 0
0 0 0 0 0 0 0 0 0 0 0 0 0 0 0 0 0 0 0 0 0 0 0 0 0 0 0 0 0 0 0 0 0 0 0 0 0 0 0 0 0 0 0
0 0 0 0 0 0 0 0 0 0 0 0 0 0 0 0 0 0 0 0 0 0 0 0 0 0 0 0 0 0 0 0 0 0 0 0 0 0 0 0 0 0 0
0 0 0 0 0 0 0 0 0 0 0 0 0 0 0 0 0 0 0 0 0 0 0 0 0 0 0 0 0 0 0 0 0 0 0 0 0 0 0 0 0 0 0
0 0 0 0 0 0 0 0 0 0 0 0 0 0 0 0 0 0 0 0 0 0 0 0 0 0 0 0 0 0 0 0 0 0 0 0 0 0 0 0 0 0 0
0 0 0 0 0 0 0 0 0 0 0 0 0 0 0 0 0 0 0 0 0 0 0 0 0 0 0 0 0 0 0 0 0 0 0 0 0 0 0 0 0 0 0
0 0 0 0 0 0 0 0 0 0 0 0 0 0 0 0 0 0 0 0 0 0 0 0 0 0 0 0 0 0 0 0 0 0 0 0 0 0 0 0 0 0 0
0 0 0 0 0 0 0 0 0 0 0 0 0 0 0 0 0 0 0 0 0 0 0 0 0 0 0 0 0 0 0 0 0 0 0 0 0 0 0 0 0 0 0
0 0 0 0 0 0 0 0 0 0 0 0 0 0 0 0 0 0 0 0 0 0 0 0 0 0 0 0 0 0 0 0 0 0 0 0 0 0 0 0 0 0 0
Height
5821 5824 5826 5828 5830 5832 5834 5835 5836 5837 5837 5838 5838 5838 5838 5838 5838 5836 5835 5834 5832 5830 5828 5825 5823 5820 5817 5814 5811 5807 5803 5799 5795 5790 5786 5781 5776 5771 5766 5761 5756 5751 5746
5815 5818 5820 5823 5825 5827 5829 5830 5831 5832 5833 5833 5834 5834 5834 5834 5833 5832 5831 5829 5828 5826 5823 5821 5818 5815 5812 5809 5806 5802 5798 5793 5789 5784 5779 5774 5769 5764 5759 5754 5749 5743 5738
5809 5812 5814 5817 5819 5821 5823 5825 5826 5827 5828 5829 5829 5829 5829 5829 5829 5828 5826 5825 5823 5821 5819 5816 5813 5811 5807 5804 5800 5796 5792 5787 5783 5778 5773 5768 5762 5757 5752 5746 5741 5735 5730
5802 5805 5808 5811 5813 5816 5818 5819 5821 5822 5823 5824 5824 5824 5824 5824 5824 5823 5822 5820 5818 5816 5814 5811 5808 5805 5802 5798 5794 5790 5786 5781 5776 5771 5766 5760 5755 5750 5744 5738 5733 5727 5721
5794 5798 5801 5804 5807 5809 5812 5814 5815 5817 5818 5818 5819 5819 5819 5819 5818 5817 5816 5815 5813 5811 5808 5806 5803 5800 5796 5792 5788 5784 5779 5774 5769 5764 5758 5753 5747 5742 5736 5730 5724 5718 5712
5787 5790 5794 5797 5800 5803 5805 5807 5809 5810 5812 5812 5813 5813 5813 5813 5813 5812 5811 5809 5807 5805 5803 5800 5797 5794 5790 5786 5782 5777 5772 5767 5762 5756 5751 5745 5739 5733 5727 5721 5715 5708 5702
5779 5783 5787 5790 5793 5796 5798 5801 5803 5804 5805 5806 5807 5808 5808 5807 5807 5806 5805 5803 5802 5799 5797 5794 5791 5787 5784 5780 5775 5770 5765 5760 5754 5749 5743 5737 5731 5725 5719 5712 5705 5698 5691
5771 5775 5779 5783 5786 5789 5791 5794 5796 5797 5799 5800 5801 5801 5801 5802 5801 5800 5799 5797 5795 5793 5791 5787 5784 5781 5777 5773 5768 5763 5758 5752 5746 5740 5735 5728 5722 5716 5709 5703 5695 5688 5681
5763 5767 5771 5775 5778 5781 5784 5787 5789 5791 5792 5793 5794 5795 5795 5795 5794 5794 5792 5791 5789 5787 5784 5781 5778 5774 5770 5765 5761 5755 5750 5744 5738 5732 5726 5720 5714 5707 5700 5693 5685 5678 5670
5754 5759 5763 5767 5770 5773 5776 5779 5781 5783 5785 5786 5787 5788 5789 5789 5788 5787 5786 5784 5782 5780 5777 5774 5771 5767 5762 5758 5753 5748 5742 5736 5730 5724 5718 5711 5704 5697 5690 5682 5675 5667 5659
5745 5750 5754 5758 5762 5765 5769 5771 5774 5776 5778 5779 5780 5780 5781 5781 5781 5780 5779 5777 5775 5773 5770 5767 5763 5759 5755 5750 5745 5740 5734 5728 5722 5716 5709 5702 5695 5687 5680 5672 5664 5657 5649
5736 5741 5746 5750 5754 5757 5760 5763 5766 5768 5770 5771 5772 5773 5774 5774 5773 5773 5772 5770 5768 5765 5763 5759 5756 5751 5747 5742 5737 5731 5726 5720 5713 5707 5700 5693 5685 5677 5670 5662 5654 5647 5639
5728 5733 5737 5741 5745 5748 5752 5754 5757 5760 5762 5763 5765 5765 5766 5766 5765 5765 5764 5762 5760 5758 5755 5752 5748 5744 5739 5734 5729 5723 5717 5711 5705 5698 5691 5684 5676 5668 5660 5652 5645 5637 5630
5718 5723 5728 5732 5736 5739 5743 5746 5749 5751 5753 5755 5756 5757 5758 5758 5757 5757 5756 5754 5752 5750 5747 5744 5739 5735 5731 5725 5720 5715 5709 5702 5696 5689 5682 5674 5666 5658 5651 5643 5636 5628 5620
5708 5713 5718 5722 5727 5730 5734 5737 5740 5742 5745 5747 5748 5749 5749 5749 5749 5748 5747 5746 5744 5742 5739 5735 5731 5726 5722 5717 5712 5706 5700 5693 5687 5680 5673 5665 5657 5649 5642 5634 5627 5619 5610
5697 5703 5708 5712 5717 5721 5724 5728 5731 5733 5736 5738 5739 5740 5741 5741 5740 5740 5738 5737 5735 5733 5730 5727 5723 5718 5713 5708 5703 5697 5691 5684 5678 5671 5663 5656 5648 5640 5633 5625 5617 5609 5600
5687 5692 5697 5702 5706 5711 5714 5718 5721 5724 5726 5728 5730 5731 5732 5732 5731 5731 5729 5728 5726 5724 5721 5718 5714 5709 5704 5699 5693 5688 5682 5675 5669 5661 5654 5646 5639 5631 5624 5616 5608 5599 5591
5676 5681 5686 5691 5696 5700 5704 5708 5711 5714 5716 5719 5720 5722 5722 5722 5722 5722 5720 5719 5717 5714 5712 5709 5705 5700 5695 5690 5684 5679 5673 5666 5659 5652 5645 5637 5630 5622 5615 5607 5598 5590 5581
5665 5670 5675 5681 5686 5690 5694 5698 5701 5703 5706 5708 5710 5712 5713 5713 5713 5712 5711 5709 5707 5705 5702 5699 5695 5691 5686 5681 5675 5669 5663 5657 5650 5643 5636 5628 5621 5614 5606 5598 5589 5580 5571
5654 5660 5665 5670 5675 5679 5683 5687 5690 5693 5696 5698 5700 5701 5702 5703 5703 5702 5701 5700 5698 5695 5693 5689 5686 5682 5677 5672 5666 5661 5654 5648 5641 5634 5626 5620 5613 5605 5597 5589 5581 5572 5562
5643 5649 5654 5658 5663 5668 5672 5676 5679 5682 5685 5687 5689 5691 5692 5693 5693 5692 5691 5690 5688 5686 5683 5680 5676 5672 5668 5663 5658 5652 5646 5639 5632 5625 5617 5611 5604 5597 5589 5580 5571 5562 5554
5631 5637 5642 5647 5652 5657 5662 5665 5668 5671 5674 5676 5679 5680 5681 5682 5682 5682 5681 5680 5678 5676 5673 5670 5666 5662 5658 5653 5648 5642 5636 5631 5625 5618 5609 5602 5595 5588 5580 5572 5563 5554 5545
5619 5625 5631 5636 5641 5646 5650 5654 5657 5660 5663 5666 5668 5670 5671 5672 5672 5671 5671 5670 5668 5666 5663 5660 5657 5653 5648 5644 5639 5633 5627 5621 5615 5608 5601 5594 5586 5579 5571 5563 5554 5545 5536
5607 5613 5618 5624 5629 5634 5638 5642 5645 5648 5652 5655 5657 5659 5660 5661 5661 5661 5660 5659 5658 5656 5653 5650 5647 5643 5638 5634 5629 5624 5618 5612 5605 5599 5592 5586 5578 5570 5562 5554 5545 5537 5528
5595 5600 5606 5612 5617 5622 5626 5630 5633 5637 5640 5643 5646 5648 5649 5650 5651 5650 5650 5649 5647 5645 5642 5640 5637 5633 5628 5624 5619 5615 5609 5603 5597 5591 5584 5578 5571 5563 5555 5546 5537 5528 5519
5583 5588 5594 5600 5605 5610 5614 5618 5622 5625 5629 5632 5634 5637 5638 5639 5639 5639 5639 5638 5637 5635 5632 5630 5626 5623 5619 5615 5610 5606 5600 5595 5589 5583 5576 5570 5563 5555 5548 5539 5530 5521 5511
Wind_Speed
32 31 30 28 27 26 25 24 23 22 22 22 21 21 20 19 19 19 20 20 21 22 23 24 25 26 27 29 30 32 33 34 35 37 38 39 39 40 40 41 41 41 42
34 33 32 31 29 27 26 26 24 24 23 23 22 22 21 21 21 21 21 22 23 23 24 25 26 27 29 30 32 33 35 36 37 38 39 40 41 42 42 42 42 43 43
36 34 33 32 31 29 28 27 26 25 24 23 23 23 23 22 22 22 23 23 24 25 26 27 28 29 30 32 34 35 36 37 39 40 41 42 42 43 43 43 44 44 45
37 36 35 34 32 31 30 29 27 26 25 24 24 24 23 23 24 24 24 25 25 26 27 28 29 30 32 34 35 37 38 39 40 41 42 43 43 44 44 44 45 46 47
38 37 36 35 34 33 32 30 29 28 27 26 25 25 24 24 24 25 26 26 27 28 29 30 31 32 34 36 37 38 39 41 42 43 43 44 45 45 45 46 47 48 49
40 38 36 36 35 34 33 32 31 30 29 28 27 26 26 26 26 26 27 27 28 29 30 31 32 34 35 37 38 39 41 42 43 44 44 45 45 46 47 48 49 50 51
41 40 37 37 36 36 35 34 32 31 31 30 29 28 27 27 27 27 28 29 29 30 31 32 34 35 36 38 40 41 42 43 44 45 46 46 46 47 48 49 51 52 52
43 41 39 38 38 37 36 35 34 33 32 31 30 29 28 28 28 28 29 30 31 31 32 33 35 36 37 39 41 42 44 45 45 46 47 47 47 49 50 51 53 53 53
43 42 40 39 39 38 37 36 35 34 33 32 31 30 30 28 29 29 30 31 32 32 34 35 36 37 38 40 42 43 44 45 46 47 47 48 49 50 52 53 54 54 54
44 43 42 40 40 39 38 37 36 35 34 33 32 31 31 30 30 30 31 31 32 33 34 36 37 38 40 41 43 44 45 46 47 47 48 49 51 52 53 55 55 54 53
45 44 43 41 40 40 39 39 38 36 35 34 33 32 32 31 31 31 32 32 33 34 35 37 38 39 41 42 44 45 46 47 47 48 49 50 51 53 54 54 54 53 52
46 44 43 42 41 41 40 40 39 38 37 35 34 34 33 33 32 33 33 33 34 35 36 37 39 41 42 44 45 45 46 47 48 49 50 51 52 54 54 53 52 51 51
47 45 43 42 42 42 41 41 40 39 38 36 35 35 35 34 34 34 35 35 36 36 37 38 40 42 43 44 45 46 47 48 48 49 50 51 53 54 53 52 51 51 51
47 46 45 43 42 42 42 41 41 40 39 38 37 36 36 36 36 36 36 36 37 37 38 39 41 42 44 45 46 47 48 48 49 50 50 52 53 53 52 51 51 51 52
48 47 46 44 44 43 42 42 42 41 40 39 38 38 37 37 37 37 37 38 38 38 39 40 41 43 44 45 46 47 48 49 49 50 51 52 52 51 51 51 51 52 52
49 48 47 45 45 44 43 42 42 42 41 40 39 39 38 38 38 38 38 39 39 39 40 40 42 43 45 46 47 48 48 49 49 50 51 51 51 50 50 51 52 52 53
49 48 48 46 45 45 44 44 42 42 42 41 40 39 38 38 39 39 39 39 39 40 41 41 42 44 46 47 47 47 48 48 49 50 50 50 50 50 50 52 52 53 53
50 49 48 47 46 45 45 44 44 43 42 41 41 40 39 39 39 39 39 40 40 41 42 42 44 45 46 47 47 47 48 48 49 50 50 49 48 49 50 52 52 52 53
50 50 50 48 47 46 46 46 45 44 43 42 41 41 40 40 40 39 40 40 41 41 42 43 44 45 46 46 47 47 48 48 49 50 49 48 48 49 51 51 52 52 53
50 50 50 49 48 48 47 46 45 44 44 43 42 41 41 41 40 40 41 41 41 42 43 44 44 45 45 45 46 47 47 48 48 49 48 47 48 49 50 51 52 52 52
50 50 49 49 49 48 48 46 45 45 44 43 42 42 42 41 41 41 41 41 41 42 43 44 44 45 45 45 45 46 47 47 47 48 48 48 48 49 49 50 51 51 51
51 50 50 49 49 49 48 46 46 45 45 44 43 42 42 42 41 41 41 41 42 42 43 43 44 44 44 44 44 45 46 46 46 47 47 47 48 48 49 49 50 50 51
52 52 51 51 49 49 48 46 46 45 45 45 44 43 43 43 42 42 42 42 42 43 43 43 43 43 43 43 44 45 45 46 46 46 46 46 47 48 48 49 49 50 51
52 52 51 51 50 48 48 48 47 46 46 44 44 43 43 43 42 41 42 43 43 43 43 43 43 42 42 42 43 44 44 45 46 45 45 45 46 47 48 49 49 50 51
53 52 52 51 50 49 48 47 46 46 46 45 44 43 43 42 42 42 43 43 43 43 42 42 41 41 41 41 42 42 43 44 44 45 44 45 45 46 47 48 49 50 51
52 53 52 50 49 48 47 46 46 45 45 46 45 44 43 42 42 42 43 43 42 42 42 41 41 41 41 41 41 41 42 43 44 44 44 44 45 46 47 48 49 50 51
Wind_Direction
240 241 241 242 244 246 248 250 253 254 257 259 261 264 268 272 279 285 291 295 299 303 307 310 312 314 316 317 318 319 320 320 320 320 320 320 319 320 319 319 317 316 316
239 240 241 241 243 245 247 250 253 254 257 259 261 264 267 272 278 283 289 294 298 301 304 308 310 313 315 316 317 317 318 318 319 319 319 318 318 318 318 318 317 316 316
239 240 240 241 243 245 248 250 252 255 258 260 261 264 267 272 277 282 287 292 296 299 302 306 308 311 313 315 316 316 317 317 318 318 318 318 317 317 317 317 316 316 315
238 240 240 241 242 245 247 250 252 255 258 260 262 265 268 272 277 281 286 291 295 298 301 304 307 309 312 314 315 315 316 316 317 317 317 317 317 317 317 316 316 315 315
238 239 240 240 242 244 247 249 251 255 258 261 263 266 269 273 277 281 286 290 293 297 301 303 305 308 311 313 314 315 315 316 316 316 316 316 317 317 316 316 316 315 315
238 239 240 240 241 244 247 249 252 255 258 260 263 266 270 274 278 282 286 289 293 296 300 302 304 307 310 312 314 314 315 315 316 316 316 316 316 316 316 316 316 316 315
238 239 241 241 242 244 247 249 252 255 257 260 263 266 270 274 279 282 286 289 292 295 299 302 304 306 309 311 313 314 315 315 315 315 316 316 316 316 316 316 316 316 315
238 240 241 241 242 244 247 250 252 255 257 260 263 266 269 274 278 283 286 289 292 295 298 301 304 306 309 311 312 313 314 314 314 315 316 316 316 316 316 316 316 316 315
238 240 241 242 243 244 247 250 252 254 257 259 262 266 270 273 278 282 286 289 292 295 298 301 304 307 309 311 312 313 314 314 314 315 315 316 316 316 316 316 316 316 316
238 239 241 242 243 244 247 250 252 254 256 259 262 266 270 274 278 282 286 289 292 295 298 301 304 307 309 311 312 313 314 314 314 315 315 315 316 316 316 316 316 316 317
238 239 241 242 243 245 247 250 252 254 256 259 262 265 269 274 278 282 286 289 292 295 298 301 304 307 309 311 313 313 313 314 315 315 315 315 316 316 317 317 317 317 317
237 239 240 242 243 245 247 250 251 253 256 259 262 266 270 274 278 282 286 289 292 295 298 301 304 307 309 311 312 313 313 314 315 314 315 315 316 316 317 317 318 318 318
237 239 241 242 244 245 247 249 251 253 256 259 262 266 269 273 278 281 285 288 291 294 298 301 304 306 308 310 312 313 314 314 314 314 315 316 316 317 317 317 318 318 318
237 239 241 242 244 245 247 249 251 253 256 259 262 266 269 273 277 281 284 287 290 294 297 301 303 306 308 310 311 313 313 314 314 315 316 316 317 317 317 318 318 318 318
237 238 240 242 244 245 247 249 251 253 256 259 262 266 269 273 277 280 284 287 290 293 297 300 303 305 307 309 311 313 313 314 315 315 316 317 317 317 318 318 319 319 319
236 238 240 242 243 245 247 249 251 254 256 259 262 265 269 273 277 280 284 287 290 293 296 299 302 305 307 309 311 312 313 314 314 315 316 317 318 318 319 319 319 319 320
237 238 240 242 243 245 247 249 251 254 256 258 261 265 269 273 277 280 283 286 289 292 295 298 302 305 307 308 310 311 312 313 314 316 317 317 318 319 319 319 319 320 320
236 238 240 241 243 245 247 249 251 254 256 258 261 265 269 272 276 280 283 286 288 291 294 298 301 304 306 308 309 310 311 313 315 316 317 317 317 318 319 320 320 320 321
238 239 241 242 243 245 247 249 252 254 255 258 260 264 268 272 276 279 282 285 287 291 294 298 301 303 306 308 308 309 311 313 314 316 317 317 317 319 319 320 320 321 322
238 240 242 243 244 245 247 249 251 253 255 257 260 263 267 271 275 279 282 284 286 290 293 297 300 303 305 307 308 309 311 313 314 316 317 316 318 319 320 320 321 322 323
238 240 242 244 245 247 248 250 251 252 254 257 259 262 267 270 274 277 280 283 286 289 293 296 299 302 304 306 307 308 311 313 315 316 316 317 318 319 320 320 321 323 324
238 240 242 244 246 247 250 251 251 252 254 256 259 262 265 269 273 275 278 282 286 289 292 296 299 301 303 305 306 308 310 312 314 315 316 317 318 319 320 321 322 323 324
238 240 242 244 246 248 249 250 251 253 255 257 259 262 265 268 271 273 277 282 286 289 293 296 298 300 302 304 306 308 310 312 315 315 316 317 318 320 320 322 323 324 325
238 240 241 243 246 248 248 249 251 253 255 257 259 262 264 267 270 273 277 281 285 289 293 295 297 299 301 303 306 308 310 312 315 316 317 318 319 320 321 322 323 324 326
239 240 242 244 245 246 248 249 250 253 254 256 258 260 263 266 269 272 276 280 284 288 291 294 296 298 299 302 305 307 310 312 315 316 317 318 319 320 321 322 324 325 326
238 241 242 243 244 245 247 249 250 252 254 256 258 260 263 265 269 272 276 279 283 286 289 292 294 296 298 301 304 307 309 312 315 316 317 317 319 320 322 323 324 325 326